Tracking 22993 objects as of 11-May-2021
HD Live streaming from Space Station
objects crossing your sky now

FENGYUN 1C DEB

Track FENGYUN 1C DEB now!
10-day predictions


NORAD ID: 32201
Int'l Code: 1999-025CUX
Perigee: 775.9 km
Apogee: 987.2 km
Inclination: 99.1 °
Period: 102.4 minutes
Semi major axis: 7252 km
RCS: 0.0094 m2 (small)
Launch date: May 10, 1999
Source: People's Republic of China (PRC)
Launch site: Taiyaun Space Center, China (TSC)

Note: This is SATELLITE DEBRIS
aabbcc
Your satellite tracking list
Your tracking list is empty




NASA's NSSDC Master Catalog

Two Line Element Set (TLE):
1 32201U 99025CUX 20340.88884447  .00001004  00000-0  58633-3 0  9996
2 32201  99.1271  18.6040 0145710 260.8733  97.5924 14.05623076703353
Source of the keplerian elements: AFSPC